Location: Hoover
(45.1124°N, 103.2678°W)
Time: 03:17:30
(UTC+00:00)

N. Korean satellite - Pass Details

Date: 02 December 2020
Orbit: 453 x 502 km, 97.2° (Epoch: 16 January)

Event Time Altitude Azimuth Distance (km) Brightness Sun altitude
Rises 23:43:05 0° 175° (S) 2,457 10.4 -5.6°
Reaches altitude 10° 23:45:07 10° 179° (S) 1,593 9.5 -6.0°
Maximum altitude 23:48:29 58° 260° (W) 544 7.2 -6.5°
Drops below altitude 10° 23:51:56 10° 340° (NNW) 1,627 9.2 -7.1°
Sets 23:54:02 0° 345° (NNW) 2,516 10.1 -7.4°
